College Park, MD

12:17 AM EST on December 16, 2019 (GMT -0500)
College Park

Weather History for KCGS - October, 2019

Change the Weather History Date:

Wednesday, October 30, 2019

  Actual Average Record
Temperature  
Mean Temperature 59 °F -  
Max Temperature 66 °F 63 °F 82 °F (1984)
Min Temperature 52 °F 39 °F 24 °F (1965)
Degree Days  
Heating Degree Days 6    
Growing Degree Days 9 (Base 50)    
Moisture  
Dew Point 53 °F    
Average Humidity 79    
Maximum Humidity 94    
Minimum Humidity 60    
Precipitation  
Precipitation 0.00 in - - ()
Sea Level Pressure  
Sea Level Pressure 30.20 in    
Wind  
Wind Speed 0 mph (SE)    
Max Wind Speed 6 mph    
Max Gust Speed -    
Visibility 9 miles    
Events      
Averages and records for this station are not official NWS values.
T = Trace of Precipitation, MM = Missing Value Source: NWS Daily Summary

Daily Weather History Graph

Daily Weather History Graph

Search for Another Location

Airport or City:

Astronomy

Oct. 30, 2019 Rise Set
Actual Time 7:32 AM EDT 6:09 PM EDT
Civil Twilight 7:05 AM EDT 6:37 PM EDT
Nautical Twilight 6:33 AM EDT 7:08 PM EDT
Astronomical Twilight 6:02 AM EDT 7:39 PM EDT
Moon 10:12 AM EDT (10/30) 8:16 PM EDT (10/30)
Length of Visible Light 11h 32m
Length of Day
10h 36m
Waxing Crescent, 8% of the Moon is Illuminated
Oct 30
Waxing Crescent
Nov 4
First Quarter
Nov 12
Full
Nov 19
Last Quarter
Nov 26
New

Hourly Weather History & Observations

Time (EDT) Temp. Dew Point Humidity Pressure Visibility Wind Dir Wind Speed Gust Speed Precip Events Conditions
12:03 AM 52.9 °F 51.1 °F 94% 30.26 in 10.0 mi Calm Calm - N/A   Clear
12:23 AM 53.2 °F 51.4 °F 94% 30.27 in 10.0 mi Calm Calm - N/A   Clear
12:43 AM 52.9 °F 51.1 °F 94% 30.27 in 10.0 mi Calm Calm - N/A   Mostly Cloudy
1:03 AM 53.6 °F 51.8 °F 94% 30.27 in 10.0 mi Calm Calm - N/A   Overcast
1:23 AM 54.0 °F 52.2 °F 94% 30.26 in 10.0 mi Calm Calm - N/A   Overcast
1:43 AM 54.5 °F 52.7 °F 94% 30.26 in 10.0 mi Calm Calm - N/A   Overcast
2:03 AM 54.9 °F 53.1 °F 94% 30.26 in 10.0 mi Calm Calm - N/A   Overcast
2:23 AM 55.4 °F 53.1 °F 92% 30.26 in 10.0 mi Calm Calm - N/A   Overcast
2:43 AM 55.4 °F 51.4 °F 87% 30.25 in 10.0 mi Calm Calm - N/A   Overcast
3:03 AM 55.4 °F 51.1 °F 85% 30.25 in 10.0 mi Calm Calm - N/A   Overcast
3:23 AM 55.6 °F 50.9 °F 84% 30.25 in 10.0 mi Calm Calm - N/A   Overcast
3:43 AM 55.8 °F 50.9 °F 84% 30.25 in 10.0 mi Calm Calm - N/A   Overcast
4:03 AM 55.9 °F 50.5 °F 82% 30.25 in 10.0 mi Calm Calm - N/A   Overcast
4:23 AM 56.3 °F 50.9 °F 82% 30.25 in 10.0 mi Calm Calm - N/A   Overcast
4:43 AM 56.3 °F 50.5 °F 81% 30.25 in 10.0 mi Calm Calm - N/A   Overcast
5:03 AM 56.3 °F 51.3 °F 83% 30.25 in 10.0 mi Calm Calm - N/A   Overcast
5:23 AM 56.3 °F 51.8 °F 85% 30.25 in 10.0 mi Calm Calm - N/A   Overcast
5:43 AM 56.7 °F 51.1 °F 82% 30.25 in 10.0 mi Calm Calm - N/A   Overcast
6:03 AM 56.7 °F 51.4 °F 83% 30.25 in 10.0 mi Calm Calm - N/A   Overcast
6:23 AM 56.8 °F 51.1 °F 81% 30.26 in 10.0 mi Calm Calm - N/A   Overcast
6:43 AM 56.7 °F 52.2 °F 85% 30.26 in 10.0 mi Calm Calm - N/A   Overcast
7:03 AM 56.3 °F 53.1 °F 89% 30.26 in 10.0 mi Calm Calm - N/A   Overcast
7:23 AM 56.3 °F 53.1 °F 89% 30.26 in 10.0 mi Calm Calm - N/A   Overcast
7:43 AM 56.3 °F 52.9 °F 88% 30.27 in 10.0 mi Calm Calm - N/A   Overcast
8:03 AM 56.3 °F 53.6 °F 91% 30.27 in 10.0 mi Calm Calm - N/A   Overcast
8:43 AM 57.2 °F 53.4 °F 87% 30.28 in 10.0 mi Calm Calm - N/A   Overcast
9:03 AM 58.1 °F 51.6 °F 79% 30.28 in 10.0 mi Calm Calm - N/A   Overcast
9:23 AM 58.5 °F 51.3 °F 77% 30.28 in 10.0 mi Calm Calm - N/A   Mostly Cloudy
9:43 AM 59.7 °F 50.9 °F 73% 30.28 in 10.0 mi Calm Calm - N/A   Mostly Cloudy
10:03 AM 61.0 °F 51.1 °F 70% 30.28 in 10.0 mi Calm Calm - N/A   Mostly Cloudy
10:23 AM 61.7 °F 50.7 °F 67% 30.28 in 10.0 mi Calm Calm - N/A   Overcast
10:43 AM 62.1 °F 50.4 °F 65% 30.27 in 10.0 mi Calm Calm - N/A   Mostly Cloudy
11:03 AM 62.6 °F 50.4 °F 64% 30.27 in 10.0 mi Calm Calm - N/A   Scattered Clouds
11:23 AM 62.8 °F 50.5 °F 64% 30.26 in 10.0 mi Calm Calm - N/A   Mostly Cloudy
11:43 AM 63.5 °F 51.1 °F 64% 30.27 in 10.0 mi Calm Calm - N/A   Overcast
12:03 PM 63.3 °F 51.3 °F 65% 30.25 in 10.0 mi Calm Calm - N/A   Scattered Clouds
12:23 PM 63.7 °F 51.3 °F 64% 30.24 in 10.0 mi Calm Calm - N/A   Scattered Clouds
12:43 PM 63.7 °F 51.4 °F 64% 30.23 in 10.0 mi Calm Calm - N/A   Scattered Clouds
1:03 PM 63.7 °F 51.6 °F 65% 30.22 in 10.0 mi Calm Calm - N/A   Scattered Clouds
1:23 PM 64.0 °F 51.8 °F 64% 30.21 in 10.0 mi Calm Calm - N/A   Clear
1:43 PM 64.6 °F 51.8 °F 63% 30.20 in 10.0 mi Calm Calm - N/A   Clear
2:03 PM 65.3 °F 52.5 °F 63% 30.19 in 10.0 mi East 4.6 mph - N/A   Scattered Clouds
2:20 PM 66.4 °F 52.3 °F 61% 30.18 in 10.0 mi Calm Calm - N/A   Mostly Cloudy
2:23 PM 66.0 °F 52.0 °F 60% 30.18 in 10.0 mi East 3.5 mph - N/A   Mostly Cloudy
2:28 PM 66.0 °F 52.2 °F 61% 30.18 in 10.0 mi SE 4.6 mph - N/A   Mostly Cloudy
2:43 PM 65.3 °F 52.0 °F 62% 30.18 in 10.0 mi Calm Calm - N/A   Mostly Cloudy
2:52 PM 65.5 °F 52.0 °F 62% 30.17 in 10.0 mi East 3.5 mph - N/A   Mostly Cloudy
3:01 PM 65.5 °F 52.0 °F 62% 30.18 in 10.0 mi SSE 3.5 mph - N/A   Mostly Cloudy
3:13 PM 65.3 °F 51.8 °F 62% 30.17 in 10.0 mi SSE 3.5 mph - N/A   Overcast
3:23 PM 65.3 °F 52.0 °F 62% 30.17 in 10.0 mi SSE 3.5 mph - N/A   Overcast
3:43 PM 65.3 °F 52.0 °F 62% 30.17 in 10.0 mi Calm Calm - N/A   Overcast
4:03 PM 64.6 °F 52.5 °F 65% 30.17 in 10.0 mi Calm Calm - N/A   Overcast
4:23 PM 64.6 °F 52.7 °F 65% 30.17 in 10.0 mi ESE 3.5 mph - N/A   Overcast
4:43 PM 64.2 °F 52.7 °F 66% 30.16 in 10.0 mi SE 3.5 mph - N/A   Overcast
5:03 PM 63.7 °F 52.7 °F 67% 30.17 in 10.0 mi Calm Calm - N/A   Overcast
5:23 PM 63.5 °F 52.7 °F 68% 30.16 in 10.0 mi SE 3.5 mph - N/A   Overcast
5:43 PM 63.1 °F 52.3 °F 68% 30.16 in 10.0 mi SE 5.8 mph - N/A   Overcast
6:03 PM 62.6 °F 53.2 °F 71% 30.15 in 10.0 mi Calm Calm - N/A   Overcast
6:23 PM 60.8 °F 53.6 °F 77% 30.15 in 7.0 mi Calm Calm - N/A   Overcast
6:43 PM 59.7 °F 53.8 °F 81% 30.15 in 7.0 mi Calm Calm - N/A   Overcast
7:03 PM 59.0 °F 54.5 °F 85% 30.15 in 7.0 mi Calm Calm - N/A   Overcast
7:23 PM 59.0 °F 55.9 °F 90% 30.14 in 7.0 mi Calm Calm - N/A   Overcast
7:43 PM 59.0 °F 57.0 °F 93% 30.13 in 5.0 mi Calm Calm - N/A   Overcast
8:03 PM 59.0 °F 57.2 °F 94% 30.13 in 7.0 mi Calm Calm - N/A   Overcast
8:21 PM 59.0 °F 57.0 °F 93% 30.12 in 4.0 mi Calm Calm - N/A   Overcast
8:39 PM 58.6 °F 56.8 °F 94% 30.12 in 5.0 mi Calm Calm - N/A   Overcast
8:51 PM 58.6 °F 56.8 °F 94% 30.12 in 4.0 mi Calm Calm - N/A   Overcast
9:16 PM 59.0 °F 57.2 °F 94% 30.11 in 5.0 mi Calm Calm - N/A   Overcast
9:30 PM 59.0 °F 57.2 °F 94% 30.11 in 5.0 mi Calm Calm - N/A   Overcast
9:41 PM 59.2 °F 57.2 °F 93% 30.11 in 5.0 mi SSE 3.5 mph - N/A   Overcast
10:00 PM 59.4 °F 57.4 °F 93% 30.11 in 5.0 mi Calm Calm - N/A   Overcast
10:20 PM 59.2 °F 57.4 °F 94% 30.10 in 5.0 mi Calm Calm - N/A   Overcast
10:41 PM 59.2 °F 57.2 °F 93% 30.09 in 5.0 mi Calm Calm - N/A   Overcast
11:00 PM 59.2 °F 57.4 °F 94% 30.09 in 3.0 mi Calm Calm - N/A   Overcast
11:20 PM 59.2 °F 57.2 °F 93% 30.08 in 4.0 mi Calm Calm - N/A   Overcast
11:40 PM 59.0 °F 57.2 °F 94% 30.07 in 5.0 mi Calm Calm - N/A   Overcast